owner,sensor,date,latitude,longitude,vertical_datum,mass_concentration_of_oxygen_in_sea_water,qcFlag 
DISL,ioos:station:DISL:DISL:1,2012-03-01T00:00:00Z,30.2513,-88.0778,6.695,8.64,1111122 
DISL,ioos:station:DISL:DISL:1,2012-03-01T00:30:00Z,30.2513,-88.0778,6.592,8.86,1111122 
DISL,ioos:station:DISL:DISL:1,2012-03-01T01:00:00Z,30.2513,-88.0778,6.54,9.43,1111122 
DISL,ioos:station:DISL:DISL:1,2012-03-01T01:30:00Z,30.2513,-88.0778,6.455,9.07,1111122 
DISL,ioos:station:DISL:DISL:1,2012-03-01T02:00:00Z,30.2513,-88.0778,6.379,9.24,1111122 
DISL,ioos:station:DISL:DISL:1,2012-03-01T02:30:00Z,30.2513,-88.0778,6.302,8.97,1111122 
DISL,ioos:station:DISL:DISL:1,2012-03-01T03:00:00Z,30.2513,-88.0778,6.252,9.42,1111122 
DISL,ioos:station:DISL:DISL:1,2012-03-01T03:30:00Z,30.2513,-88.0778,6.217,9.47,1111122 
DISL,ioos:station:DISL:DISL:1,2012-03-01T04:00:00Z,30.2513,-88.0778,6.106,9.33,1111122 
DISL,ioos:station:DISL:DISL:1,2012-03-01T04:30:00Z,30.2513,-88.0778,6.024,9.27,1111122 
DISL,ioos:station:DISL:DISL:1,2012-03-01T05:00:00Z,30.2513,-88.0778,5.928,9.35,1111122 
DISL,ioos:station:DISL:DISL:1,2012-03-01T05:30:00Z,30.2513,-88.0778,5.899,9.33,1111122 
DISL,ioos:station:DISL:DISL:1,2012-03-01T06:00:00Z,30.2513,-88.0778,5.794,9.1,1111122 
DISL,ioos:station:DISL:DISL:1,2012-03-01T06:30:00Z,30.2513,-88.0778,5.702,9.15,1111122 
DISL,ioos:station:DISL:DISL:1,2012-03-01T07:00:00Z,30.2513,-88.0778,5.691,9.09,1111122 
DISL,ioos:station:DISL:DISL:1,2012-03-01T07:30:00Z,30.2513,-88.0778,5.66,9.05,1111122 
DISL,ioos:station:DISL:DISL:1,2012-03-01T08:00:00Z,30.2513,-88.0778,5.623,8.83,1111122 
DISL,ioos:station:DISL:DISL:1,2012-03-01T08:30:00Z,30.2513,-88.0778,5.622,9.1,1111122 
DISL,ioos:station:DISL:DISL:1,2012-03-01T09:00:00Z,30.2513,-88.0778,5.612,9.06,1111122 
DISL,ioos:station:DISL:DISL:1,2012-03-01T09:30:00Z,30.2513,-88.0778,5.588,8.94,1111122 
DISL,ioos:station:DISL:DISL:1,2012-03-01T10:00:00Z,30.2513,-88.0778,5.613,8.8,1111122 
DISL,ioos:station:DISL:DISL:1,2012-03-01T10:30:00Z,30.2513,-88.0778,5.626,9.09,1111122 
DISL,ioos:station:DISL:DISL:1,2012-03-01T11:00:00Z,30.2513,-88.0778,5.616,9.19,1111122 
DISL,ioos:station:DISL:DISL:1,2012-03-01T11:30:00Z,30.2513,-88.0778,5.696,8.7,1111122 
DISL,ioos:station:DISL:DISL:1,2012-03-01T12:00:00Z,30.2513,-88.0778,5.674,8.58,1111122 
DISL,ioos:station:DISL:DISL:1,2012-03-01T12:30:00Z,30.2513,-88.0778,5.709,8.76,1111122 
DISL,ioos:station:DISL:DISL:1,2012-03-01T13:00:00Z,30.2513,-88.0778,5.771,8.83,1111122 
DISL,ioos:station:DISL:DISL:1,2012-03-01T13:30:00Z,30.2513,-88.0778,5.86,8.85,1111122 
DISL,ioos:station:DISL:DISL:1,2012-03-01T14:00:00Z,30.2513,-88.0778,5.91,8.55,1111122 
DISL,ioos:station:DISL:DISL:1,2012-03-01T14:30:00Z,30.2513,-88.0778,5.961,8.53,1111122 
DISL,ioos:station:DISL:DISL:1,2012-03-01T15:00:00Z,30.2513,-88.0778,6.027,8.15,1111122 
DISL,ioos:station:DISL:DISL:1,2012-03-01T15:30:00Z,30.2513,-88.0778,6.084,8.3,1111122 
DISL,ioos:station:DISL:DISL:1,2012-03-01T16:00:00Z,30.2513,-88.0778,6.113,8.65,1111122 
DISL,ioos:station:DISL:DISL:1,2012-03-01T16:30:00Z,30.2513,-88.0778,6.171,8.8,1111122 
DISL,ioos:station:DISL:DISL:1,2012-03-01T17:00:00Z,30.2513,-88.0778,6.273,9.09,1111122 
DISL,ioos:station:DISL:DISL:1,2012-03-01T17:30:00Z,30.2513,-88.0778,6.351,9.33,1111122 
DISL,ioos:station:DISL:DISL:1,2012-03-01T18:00:00Z,30.2513,-88.0778,6.393,9.46,1111122 
DISL,ioos:station:DISL:DISL:1,2012-03-01T18:30:00Z,30.2513,-88.0778,6.48,9.54,1111122 
DISL,ioos:station:DISL:DISL:1,2012-03-01T19:00:00Z,30.2513,-88.0778,6.656,9.69,1111122 
DISL,ioos:station:DISL:DISL:1,2012-03-01T19:30:00Z,30.2513,-88.0778,6.753,9.71,1111122 
DISL,ioos:station:DISL:DISL:1,2012-03-01T20:00:00Z,30.2513,-88.0778,6.781,9.84,1111122 
DISL,ioos:station:DISL:DISL:1,2012-03-01T20:30:00Z,30.2513,-88.0778,6.786,10.11,1111122 
DISL,ioos:station:DISL:DISL:1,2012-03-01T21:00:00Z,30.2513,-88.0778,6.805,9.41,1111122 
DISL,ioos:station:DISL:DISL:1,2012-03-01T21:30:00Z,30.2513,-88.0778,6.828,9.35,1111122 
DISL,ioos:station:DISL:DISL:1,2012-03-01T22:00:00Z,30.2513,-88.0778,6.845,9.38,1111122 
DISL,ioos:station:DISL:DISL:1,2012-03-01T22:30:00Z,30.2513,-88.0778,6.852,9.55,1111122 
DISL,ioos:station:DISL:DISL:1,2012-03-01T23:00:00Z,30.2513,-88.0778,6.816,9.82,1111122 
DISL,ioos:station:DISL:DISL:1,2012-03-01T23:30:00Z,30.2513,-88.0778,6.815,10.06,1111122 
DISL,ioos:station:DISL:DISL:1,2012-03-02T00:00:00Z,30.2513,-88.0778,6.807,10.3,1111122 
DISL,ioos:station:DISL:DISL:1,2012-03-02T00:30:00Z,30.2513,-88.0778,6.754,10.23,1111122 
DISL,ioos:station:DISL:DISL:1,2012-03-02T01:00:00Z,30.2513,-88.0778,6.7,10.44,1111122 
DISL,ioos:station:DISL:DISL:1,2012-03-02T01:30:00Z,30.2513,-88.0778,6.682,10.2,1111122 
DISL,ioos:station:DISL:DISL:1,2012-03-02T02:00:00Z,30.2513,-88.0778,6.62,10.28,1111122 
DISL,ioos:station:DISL:DISL:1,2012-03-02T02:30:00Z,30.2513,-88.0778,6.546,9.83,1111122 
DISL,ioos:station:DISL:DISL:1,2012-03-02T03:00:00Z,30.2513,-88.0778,6.454,9.78,1111122 
DISL,ioos:station:DISL:DISL:1,2012-03-02T03:30:00Z,30.2513,-88.0778,6.334,9.51,1111122 
DISL,ioos:station:DISL:DISL:1,2012-03-02T04:00:00Z,30.2513,-88.0778,6.256,10.4,1111122 
DISL,ioos:station:DISL:DISL:1,2012-03-02T04:30:00Z,30.2513,-88.0778,6.194,10.13,1111122 
DISL,ioos:station:DISL:DISL:1,2012-03-02T05:00:00Z,30.2513,-88.0778,6.124,10.18,1111122 
DISL,ioos:station:DISL:DISL:1,2012-03-02T05:30:00Z,30.2513,-88.0778,6.03,9.68,1111122 
DISL,ioos:station:DISL:DISL:1,2012-03-02T06:00:00Z,30.2513,-88.0778,5.979,9.61,1111122 
DISL,ioos:station:DISL:DISL:1,2012-03-02T06:30:00Z,30.2513,-88.0778,5.943,9.25,1111122 
DISL,ioos:station:DISL:DISL:1,2012-03-02T07:00:00Z,30.2513,-88.0778,5.875,8.96,1111122 
DISL,ioos:station:DISL:DISL:1,2012-03-02T07:30:00Z,30.2513,-88.0778,5.825,8.96,1111122 
DISL,ioos:station:DISL:DISL:1,2012-03-02T08:00:00Z,30.2513,-88.0778,5.796,9.18,1111122 
DISL,ioos:station:DISL:DISL:1,2012-03-02T08:30:00Z,30.2513,-88.0778,5.757,9.06,1111122 
DISL,ioos:station:DISL:DISL:1,2012-03-02T09:00:00Z,30.2513,-88.0778,5.768,9.03,1111122 
DISL,ioos:station:DISL:DISL:1,2012-03-02T09:30:00Z,30.2513,-88.0778,5.697,8.79,1111122 
DISL,ioos:station:DISL:DISL:1,2012-03-02T10:00:00Z,30.2513,-88.0778,5.694,9.24,1111122 
DISL,ioos:station:DISL:DISL:1,2012-03-02T10:30:00Z,30.2513,-88.0778,5.698,9.16,1111122 
DISL,ioos:station:DISL:DISL:1,2012-03-02T11:00:00Z,30.2513,-88.0778,5.66,9.06,1111122 
DISL,ioos:station:DISL:DISL:1,2012-03-02T11:30:00Z,30.2513,-88.0778,5.744,9.12,1111122 
DISL,ioos:station:DISL:DISL:1,2012-03-02T12:00:00Z,30.2513,-88.0778,5.8,8.79,1111122 
DISL,ioos:station:DISL:DISL:1,2012-03-02T12:30:00Z,30.2513,-88.0778,5.819,8.73,1111122 
DISL,ioos:station:DISL:DISL:1,2012-03-02T13:00:00Z,30.2513,-88.0778,5.889,8.71,1111122 
DISL,ioos:station:DISL:DISL:1,2012-03-02T13:30:00Z,30.2513,-88.0778,5.944,8.81,1111122 
DISL,ioos:station:DISL:DISL:1,2012-03-02T14:00:00Z,30.2513,-88.0778,6.015,8.68,1111122 
DISL,ioos:station:DISL:DISL:1,2012-03-02T14:30:00Z,30.2513,-88.0778,6.076,8.86,1111122 
DISL,ioos:station:DISL:DISL:1,2012-03-02T15:00:00Z,30.2513,-88.0778,6.123,8.9,1111122 
DISL,ioos:station:DISL:DISL:1,2012-03-02T15:30:00Z,30.2513,-88.0778,6.212,8.9,1111122 
DISL,ioos:station:DISL:DISL:1,2012-03-02T16:00:00Z,30.2513,-88.0778,6.307,8.96,1111122 
DISL,ioos:station:DISL:DISL:1,2012-03-02T16:30:00Z,30.2513,-88.0778,6.392,8.79,1111122 
DISL,ioos:station:DISL:DISL:1,2012-03-02T17:00:00Z,30.2513,-88.0778,6.466,8.95,1111122 
DISL,ioos:station:DISL:DISL:1,2012-03-02T17:30:00Z,30.2513,-88.0778,6.564,9.28,1111122 
DISL,ioos:station:DISL:DISL:1,2012-03-02T18:00:00Z,30.2513,-88.0778,6.568,9.33,1111122 
DISL,ioos:station:DISL:DISL:1,2012-03-02T18:30:00Z,30.2513,-88.0778,6.678,9.39,1111122 
DISL,ioos:station:DISL:DISL:1,2012-03-02T19:00:00Z,30.2513,-88.0778,6.737,9.49,1111122 
DISL,ioos:station:DISL:DISL:1,2012-03-02T19:30:00Z,30.2513,-88.0778,6.796,9.52,1111122 
DISL,ioos:station:DISL:DISL:1,2012-03-02T20:00:00Z,30.2513,-88.0778,6.833,9.16,1111122 
DISL,ioos:station:DISL:DISL:1,2012-03-02T20:30:00Z,30.2513,-88.0778,6.912,8.07,1111122 
DISL,ioos:station:DISL:DISL:1,2012-03-02T21:00:00Z,30.2513,-88.0778,6.948,7.9,1111122 
DISL,ioos:station:DISL:DISL:1,2012-03-02T21:30:00Z,30.2513,-88.0778,7.0,7.94,1111122 
DISL,ioos:station:DISL:DISL:1,2012-03-02T22:00:00Z,30.2513,-88.0778,7.0,8.7,1111122 
DISL,ioos:station:DISL:DISL:1,2012-03-02T22:30:00Z,30.2513,-88.0778,7.08,9.64,1111122 
DISL,ioos:station:DISL:DISL:1,2012-03-02T23:00:00Z,30.2513,-88.0778,7.08,9.87,1111122 
DISL,ioos:station:DISL:DISL:1,2012-03-02T23:30:00Z,30.2513,-88.0778,7.08,9.82,1111122 
DISL,ioos:station:DISL:DISL:1,2012-03-03T00:00:00Z,30.2513,-88.0778,7.07,9.73,1111122 
DISL,ioos:station:DISL:DISL:1,2012-03-03T00:30:00Z,30.2513,-88.0778,7.04,9.72,1111122 
DISL,ioos:station:DISL:DISL:1,2012-03-03T01:00:00Z,30.2513,-88.0778,7.03,9.61,1111122 
DISL,ioos:station:DISL:DISL:1,2012-03-03T01:30:00Z,30.2513,-88.0778,6.991,9.58,1111122 
DISL,ioos:station:DISL:DISL:1,2012-03-03T02:00:00Z,30.2513,-88.0778,6.974,9.57,1111122 
DISL,ioos:station:DISL:DISL:1,2012-03-03T02:30:00Z,30.2513,-88.0778,6.947,9.25,1111122 
DISL,ioos:station:DISL:DISL:1,2012-03-03T03:00:00Z,30.2513,-88.0778,6.849,8.94,1111122 
DISL,ioos:station:DISL:DISL:1,2012-03-03T03:30:00Z,30.2513,-88.0778,6.774,7.82,1111122 
DISL,ioos:station:DISL:DISL:1,2012-03-03T04:00:00Z,30.2513,-88.0778,6.686,7.61,1111122 
DISL,ioos:station:DISL:DISL:1,2012-03-03T04:30:00Z,30.2513,-88.0778,6.608,7.26,1111122 
DISL,ioos:station:DISL:DISL:1,2012-03-03T05:00:00Z,30.2513,-88.0778,6.474,6.96,1111122 
DISL,ioos:station:DISL:DISL:1,2012-03-03T05:30:00Z,30.2513,-88.0778,6.385,6.93,1111122 
DISL,ioos:station:DISL:DISL:1,2012-03-03T06:00:00Z,30.2513,-88.0778,6.34,6.96,1111122 
DISL,ioos:station:DISL:DISL:1,2012-03-03T06:30:00Z,30.2513,-88.0778,6.287,6.91,1111122 
DISL,ioos:station:DISL:DISL:1,2012-03-03T07:00:00Z,30.2513,-88.0778,6.216,6.91,1111122 
DISL,ioos:station:DISL:DISL:1,2012-03-03T07:30:00Z,30.2513,-88.0778,6.151,7.13,1111122 
DISL,ioos:station:DISL:DISL:1,2012-03-03T08:00:00Z,30.2513,-88.0778,6.086,7.72,1111122 
DISL,ioos:station:DISL:DISL:1,2012-03-03T08:30:00Z,30.2513,-88.0778,6.058,7.61,1111122 
DISL,ioos:station:DISL:DISL:1,2012-03-03T09:00:00Z,30.2513,-88.0778,5.966,7.81,1111122 
DISL,ioos:station:DISL:DISL:1,2012-03-03T09:30:00Z,30.2513,-88.0778,5.898,7.07,1111122 
DISL,ioos:station:DISL:DISL:1,2012-03-03T10:00:00Z,30.2513,-88.0778,5.89,6.67,1111122 
DISL,ioos:station:DISL:DISL:1,2012-03-03T10:30:00Z,30.2513,-88.0778,5.901,7.49,1111122 
DISL,ioos:station:DISL:DISL:1,2012-03-03T11:00:00Z,30.2513,-88.0778,5.871,7.59,1111122 
DISL,ioos:station:DISL:DISL:1,2012-03-03T11:30:00Z,30.2513,-88.0778,5.858,7.59,1111122 
DISL,ioos:station:DISL:DISL:1,2012-03-03T12:00:00Z,30.2513,-88.0778,5.928,7.32,1111122 
DISL,ioos:station:DISL:DISL:1,2012-03-03T12:30:00Z,30.2513,-88.0778,5.983,7.08,1111122 
DISL,ioos:station:DISL:DISL:1,2012-03-03T13:00:00Z,30.2513,-88.0778,5.921,7.0,1111122 
DISL,ioos:station:DISL:DISL:1,2012-03-03T13:30:00Z,30.2513,-88.0778,6.232,7.57,1111122 
DISL,ioos:station:DISL:DISL:1,2012-03-03T14:00:00Z,30.2513,-88.0778,6.748,7.42,1111122 
DISL,ioos:station:DISL:DISL:1,2012-03-03T14:30:00Z,30.2513,-88.0778,6.115,7.6,1111122 
DISL,ioos:station:DISL:DISL:1,2012-03-03T15:00:00Z,30.2513,-88.0778,6.315,7.81,1111122 
DISL,ioos:station:DISL:DISL:1,2012-03-03T15:30:00Z,30.2513,-88.0778,6.06,7.72,1111122 
DISL,ioos:station:DISL:DISL:1,2012-03-03T16:00:00Z,30.2513,-88.0778,6.642,7.79,1111122 
DISL,ioos:station:DISL:DISL:1,2012-03-03T16:30:00Z,30.2513,-88.0778,6.25,7.84,1111122 
DISL,ioos:station:DISL:DISL:1,2012-03-03T17:00:00Z,30.2513,-88.0778,6.432,7.79,1111122 
DISL,ioos:station:DISL:DISL:1,2012-03-03T17:30:00Z,30.2513,-88.0778,6.008,8.0,1111122 
DISL,ioos:station:DISL:DISL:1,2012-03-03T18:00:00Z,30.2513,-88.0778,6.414,8.03,1111122 
DISL,ioos:station:DISL:DISL:1,2012-03-03T18:30:00Z,30.2513,-88.0778,6.519,8.02,1111122 
DISL,ioos:station:DISL:DISL:1,2012-03-03T19:00:00Z,30.2513,-88.0778,6.4,8.08,1111122 
DISL,ioos:station:DISL:DISL:1,2012-03-03T19:30:00Z,30.2513,-88.0778,6.395,8.16,1111122 
DISL,ioos:station:DISL:DISL:1,2012-03-03T20:00:00Z,30.2513,-88.0778,6.421,7.95,1111122 
DISL,ioos:station:DISL:DISL:1,2012-03-03T20:30:00Z,30.2513,-88.0778,6.555,7.1,1111122 
DISL,ioos:station:DISL:DISL:1,2012-03-03T21:00:00Z,30.2513,-88.0778,6.546,7.58,1111122 
DISL,ioos:station:DISL:DISL:1,2012-03-03T21:30:00Z,30.2513,-88.0778,6.619,7.86,1111122 
DISL,ioos:station:DISL:DISL:1,2012-03-03T22:00:00Z,30.2513,-88.0778,6.842,7.96,1111122 
DISL,ioos:station:DISL:DISL:1,2012-03-03T22:30:00Z,30.2513,-88.0778,6.848,7.89,1111122 
DISL,ioos:station:DISL:DISL:1,2012-03-03T23:00:00Z,30.2513,-88.0778,7.13,8.02,1111122 
DISL,ioos:station:DISL:DISL:1,2012-03-03T23:30:00Z,30.2513,-88.0778,7.12,8.18,1111122 
DISL,ioos:station:DISL:DISL:1,2012-03-04T00:00:00Z,30.2513,-88.0778,7.19,8.16,1111122 
DISL,ioos:station:DISL:DISL:1,2012-03-04T00:30:00Z,30.2513,-88.0778,6.783,8.1,1111122 
DISL,ioos:station:DISL:DISL:1,2012-03-04T01:00:00Z,30.2513,-88.0778,7.01,8.11,1111122 
DISL,ioos:station:DISL:DISL:1,2012-03-04T01:30:00Z,30.2513,-88.0778,7.25,8.06,1111122 
DISL,ioos:station:DISL:DISL:1,2012-03-04T02:00:00Z,30.2513,-88.0778,7.03,8.05,1111122 
DISL,ioos:station:DISL:DISL:1,2012-03-04T02:30:00Z,30.2513,-88.0778,6.956,8.03,1111122 
DISL,ioos:station:DISL:DISL:1,2012-03-04T03:00:00Z,30.2513,-88.0778,6.835,8.54,1111122 
DISL,ioos:station:DISL:DISL:1,2012-03-04T03:30:00Z,30.2513,-88.0778,7.03,7.98,1111122 
DISL,ioos:station:DISL:DISL:1,2012-03-04T04:00:00Z,30.2513,-88.0778,7.08,8.54,1111122 
DISL,ioos:station:DISL:DISL:1,2012-03-04T04:30:00Z,30.2513,-88.0778,6.554,8.51,1111122 
DISL,ioos:station:DISL:DISL:1,2012-03-04T05:00:00Z,30.2513,-88.0778,6.461,8.01,1111122 
DISL,ioos:station:DISL:DISL:1,2012-03-04T05:30:00Z,30.2513,-88.0778,6.227,7.99,1111122 
DISL,ioos:station:DISL:DISL:1,2012-03-04T06:00:00Z,30.2513,-88.0778,6.629,8.02,1111122 
DISL,ioos:station:DISL:DISL:1,2012-03-04T06:30:00Z,30.2513,-88.0778,6.222,7.93,1111122 
DISL,ioos:station:DISL:DISL:1,2012-03-04T07:00:00Z,30.2513,-88.0778,6.06,7.84,1111122 
DISL,ioos:station:DISL:DISL:1,2012-03-04T07:30:00Z,30.2513,-88.0778,5.963,7.79,1111122 
DISL,ioos:station:DISL:DISL:1,2012-03-04T08:00:00Z,30.2513,-88.0778,5.815,7.81,1111122 
DISL,ioos:station:DISL:DISL:1,2012-03-04T08:30:00Z,30.2513,-88.0778,5.677,7.79,1111122 
DISL,ioos:station:DISL:DISL:1,2012-03-04T09:00:00Z,30.2513,-88.0778,5.584,8.06,1111122 
DISL,ioos:station:DISL:DISL:1,2012-03-04T09:30:00Z,30.2513,-88.0778,5.642,7.78,1111122 
DISL,ioos:station:DISL:DISL:1,2012-03-04T10:00:00Z,30.2513,-88.0778,5.593,7.86,1111122 
DISL,ioos:station:DISL:DISL:1,2012-03-04T10:30:00Z,30.2513,-88.0778,5.55,7.81,1111122 
DISL,ioos:station:DISL:DISL:1,2012-03-04T11:00:00Z,30.2513,-88.0778,5.554,7.91,1111122 
DISL,ioos:station:DISL:DISL:1,2012-03-04T11:30:00Z,30.2513,-88.0778,5.548,7.9,1111122 
DISL,ioos:station:DISL:DISL:1,2012-03-04T12:00:00Z,30.2513,-88.0778,5.589,7.89,1111122 
DISL,ioos:station:DISL:DISL:1,2012-03-04T12:30:00Z,30.2513,-88.0778,5.406,8.08,1111122 
DISL,ioos:station:DISL:DISL:1,2012-03-04T13:00:00Z,30.2513,-88.0778,5.494,8.23,1111122 
DISL,ioos:station:DISL:DISL:1,2012-03-04T13:30:00Z,30.2513,-88.0778,5.457,8.26,1111122 
DISL,ioos:station:DISL:DISL:1,2012-03-04T14:00:00Z,30.2513,-88.0778,5.518,8.22,1111122 
DISL,ioos:station:DISL:DISL:1,2012-03-04T14:30:00Z,30.2513,-88.0778,5.513,8.27,1111122 
DISL,ioos:station:DISL:DISL:1,2012-03-04T15:00:00Z,30.2513,-88.0778,5.522,8.92,1111122 
DISL,ioos:station:DISL:DISL:1,2012-03-04T15:30:00Z,30.2513,-88.0778,5.483,8.96,1111122 
DISL,ioos:station:DISL:DISL:1,2012-03-04T16:00:00Z,30.2513,-88.0778,5.516,8.63,1111122 
DISL,ioos:station:DISL:DISL:1,2012-03-04T16:30:00Z,30.2513,-88.0778,5.634,8.58,1111122 
DISL,ioos:station:DISL:DISL:1,2012-03-04T17:00:00Z,30.2513,-88.0778,5.704,8.67,1111122 
DISL,ioos:station:DISL:DISL:1,2012-03-04T17:30:00Z,30.2513,-88.0778,5.753,8.63,1111122 
DISL,ioos:station:DISL:DISL:1,2012-03-04T18:00:00Z,30.2513,-88.0778,5.87,9.13,1111122 
DISL,ioos:station:DISL:DISL:1,2012-03-04T18:30:00Z,30.2513,-88.0778,5.872,9.65,1111122 
DISL,ioos:station:DISL:DISL:1,2012-03-04T19:00:00Z,30.2513,-88.0778,5.834,10.18,1111122 
DISL,ioos:station:DISL:DISL:1,2012-03-04T19:30:00Z,30.2513,-88.0778,6.003,10.4,1111122 
DISL,ioos:station:DISL:DISL:1,2012-03-04T20:00:00Z,30.2513,-88.0778,6.046,10.51,1111122 
DISL,ioos:station:DISL:DISL:1,2012-03-04T20:30:00Z,30.2513,-88.0778,6.041,10.4,1111122 
DISL,ioos:station:DISL:DISL:1,2012-03-04T21:00:00Z,30.2513,-88.0778,6.046,10.63,1111122 
DISL,ioos:station:DISL:DISL:1,2012-03-04T21:30:00Z,30.2513,-88.0778,6.082,10.74,1111122 
DISL,ioos:station:DISL:DISL:1,2012-03-04T22:00:00Z,30.2513,-88.0778,6.001,10.82,1111122 
DISL,ioos:station:DISL:DISL:1,2012-03-04T22:30:00Z,30.2513,-88.0778,6.108,10.93,1111122 
DISL,ioos:station:DISL:DISL:1,2012-03-04T23:00:00Z,30.2513,-88.0778,6.127,10.94,1111122 
DISL,ioos:station:DISL:DISL:1,2012-03-04T23:30:00Z,30.2513,-88.0778,6.15,11.06,1111122 
DISL,ioos:station:DISL:DISL:1,2012-03-05T00:00:00Z,30.2513,-88.0778,6.129,11.17,1111122 
DISL,ioos:station:DISL:DISL:1,2012-03-05T00:30:00Z,30.2513,-88.0778,6.129,11.02,1111122 
DISL,ioos:station:DISL:DISL:1,2012-03-05T01:00:00Z,30.2513,-88.0778,6.151,10.77,1111122 
DISL,ioos:station:DISL:DISL:1,2012-03-05T01:30:00Z,30.2513,-88.0778,6.151,10.7,1111122 
DISL,ioos:station:DISL:DISL:1,2012-03-05T02:00:00Z,30.2513,-88.0778,6.175,10.47,1111122 
DISL,ioos:station:DISL:DISL:1,2012-03-05T02:30:00Z,30.2513,-88.0778,6.149,10.34,1111122 
DISL,ioos:station:DISL:DISL:1,2012-03-05T03:00:00Z,30.2513,-88.0778,6.141,10.24,1111122 
DISL,ioos:station:DISL:DISL:1,2012-03-05T03:30:00Z,30.2513,-88.0778,6.077,10.07,1111122 
DISL,ioos:station:DISL:DISL:1,2012-03-05T04:00:00Z,30.2513,-88.0778,5.964,10.07,1111122 
DISL,ioos:station:DISL:DISL:1,2012-03-05T04:30:00Z,30.2513,-88.0778,5.922,9.91,1111122 
DISL,ioos:station:DISL:DISL:1,2012-03-05T05:00:00Z,30.2513,-88.0778,5.888,9.82,1111122 
DISL,ioos:station:DISL:DISL:1,2012-03-05T05:30:00Z,30.2513,-88.0778,5.832,9.76,1111122 
DISL,ioos:station:DISL:DISL:1,2012-03-05T06:00:00Z,30.2513,-88.0778,5.7,9.6,1111122 
DISL,ioos:station:DISL:DISL:1,2012-03-05T06:30:00Z,30.2513,-88.0778,5.587,9.56,1111122 
DISL,ioos:station:DISL:DISL:1,2012-03-05T07:00:00Z,30.2513,-88.0778,5.516,9.44,1111122 
DISL,ioos:station:DISL:DISL:1,2012-03-05T07:30:00Z,30.2513,-88.0778,5.443,9.3,1111122 
DISL,ioos:station:DISL:DISL:1,2012-03-05T08:00:00Z,30.2513,-88.0778,5.38,9.22,1111122 
DISL,ioos:station:DISL:DISL:1,2012-03-05T08:30:00Z,30.2513,-88.0778,5.306,9.11,1111122 
DISL,ioos:station:DISL:DISL:1,2012-03-05T09:00:00Z,30.2513,-88.0778,5.297,9.03,1111122 
DISL,ioos:station:DISL:DISL:1,2012-03-05T09:30:00Z,30.2513,-88.0778,5.202,8.94,1111122 
DISL,ioos:station:DISL:DISL:1,2012-03-05T10:00:00Z,30.2513,-88.0778,5.15,8.71,1111122 
DISL,ioos:station:DISL:DISL:1,2012-03-05T10:30:00Z,30.2513,-88.0778,5.098,8.69,1111122 
DISL,ioos:station:DISL:DISL:1,2012-03-05T11:00:00Z,30.2513,-88.0778,5.039,8.74,1111122 
DISL,ioos:station:DISL:DISL:1,2012-03-05T11:30:00Z,30.2513,-88.0778,5.032,8.28,1111122 
DISL,ioos:station:DISL:DISL:1,2012-03-05T12:00:00Z,30.2513,-88.0778,5.015,8.78,1111122 
DISL,ioos:station:DISL:DISL:1,2012-03-05T12:30:00Z,30.2513,-88.0778,4.979,8.67,1111122 
DISL,ioos:station:DISL:DISL:1,2012-03-05T13:00:00Z,30.2513,-88.0778,4.997,8.29,1111122 
DISL,ioos:station:DISL:DISL:1,2012-03-05T13:30:00Z,30.2513,-88.0778,5.011,8.54,1111122 
DISL,ioos:station:DISL:DISL:1,2012-03-05T14:00:00Z,30.2513,-88.0778,5.062,8.59,1111122 
DISL,ioos:station:DISL:DISL:1,2012-03-05T14:30:00Z,30.2513,-88.0778,5.11,8.61,1111122 
DISL,ioos:station:DISL:DISL:1,2012-03-05T15:00:00Z,30.2513,-88.0778,5.129,8.84,1111122 
DISL,ioos:station:DISL:DISL:1,2012-03-05T15:30:00Z,30.2513,-88.0778,5.183,8.9,1111122 
DISL,ioos:station:DISL:DISL:1,2012-03-05T16:00:00Z,30.2513,-88.0778,5.226,9.02,1111122 
DISL,ioos:station:DISL:DISL:1,2012-03-05T16:30:00Z,30.2513,-88.0778,5.252,9.05,1111122 
DISL,ioos:station:DISL:DISL:1,2012-03-05T17:00:00Z,30.2513,-88.0778,5.288,9.43,1111122 
DISL,ioos:station:DISL:DISL:1,2012-03-05T17:30:00Z,30.2513,-88.0778,5.338,9.7,1111122 
DISL,ioos:station:DISL:DISL:1,2012-03-05T18:00:00Z,30.2513,-88.0778,5.394,9.87,1111122 
DISL,ioos:station:DISL:DISL:1,2012-03-05T18:30:00Z,30.2513,-88.0778,5.435,10.46,1111122 
DISL,ioos:station:DISL:DISL:1,2012-03-05T19:00:00Z,30.2513,-88.0778,5.469,10.55,1111122 
DISL,ioos:station:DISL:DISL:1,2012-03-05T19:30:00Z,30.2513,-88.0778,5.551,11.01,1111122 
DISL,ioos:station:DISL:DISL:1,2012-03-05T20:00:00Z,30.2513,-88.0778,5.613,11.0,1111122 
DISL,ioos:station:DISL:DISL:1,2012-03-05T20:30:00Z,30.2513,-88.0778,5.673,11.06,1111122 
DISL,ioos:station:DISL:DISL:1,2012-03-05T21:00:00Z,30.2513,-88.0778,5.79,11.31,1111122 
DISL,ioos:station:DISL:DISL:1,2012-03-05T21:30:00Z,30.2513,-88.0778,5.771,11.57,1111122 
DISL,ioos:station:DISL:DISL:1,2012-03-05T22:00:00Z,30.2513,-88.0778,5.801,10.77,1111122 
DISL,ioos:station:DISL:DISL:1,2012-03-05T22:30:00Z,30.2513,-88.0778,5.879,9.69,1111122 
DISL,ioos:station:DISL:DISL:1,2012-03-05T23:00:00Z,30.2513,-88.0778,5.932,10.57,1111122 
DISL,ioos:station:DISL:DISL:1,2012-03-05T23:30:00Z,30.2513,-88.0778,6.033,9.9,1111122 
DISL,ioos:station:DISL:DISL:1,2012-03-06T00:00:00Z,30.2513,-88.0778,6.09,10.12,1111122 
DISL,ioos:station:DISL:DISL:1,2012-03-06T00:30:00Z,30.2513,-88.0778,6.138,10.85,1111122 
DISL,ioos:station:DISL:DISL:1,2012-03-06T01:00:00Z,30.2513,-88.0778,6.185,10.65,1111122 
DISL,ioos:station:DISL:DISL:1,2012-03-06T01:30:00Z,30.2513,-88.0778,6.242,11.63,1111122 
DISL,ioos:station:DISL:DISL:1,2012-03-06T02:00:00Z,30.2513,-88.0778,6.267,11.67,1111122 
DISL,ioos:station:DISL:DISL:1,2012-03-06T02:30:00Z,30.2513,-88.0778,6.391,11.51,1111122 
DISL,ioos:station:DISL:DISL:1,2012-03-06T03:00:00Z,30.2513,-88.0778,6.224,11.08,1111122 
DISL,ioos:station:DISL:DISL:1,2012-03-06T03:30:00Z,30.2513,-88.0778,6.181,11.23,1111122 
DISL,ioos:station:DISL:DISL:1,2012-03-06T04:00:00Z,30.2513,-88.0778,6.124,11.33,1111122 
DISL,ioos:station:DISL:DISL:1,2012-03-06T04:30:00Z,30.2513,-88.0778,6.151,11.28,1111122 
DISL,ioos:station:DISL:DISL:1,2012-03-06T05:00:00Z,30.2513,-88.0778,6.059,11.29,1111122 
DISL,ioos:station:DISL:DISL:1,2012-03-06T05:30:00Z,30.2513,-88.0778,6.045,11.38,1111122 
DISL,ioos:station:DISL:DISL:1,2012-03-06T06:00:00Z,30.2513,-88.0778,5.924,10.91,1111122 
DISL,ioos:station:DISL:DISL:1,2012-03-06T06:30:00Z,30.2513,-88.0778,5.897,10.3,1111122 
DISL,ioos:station:DISL:DISL:1,2012-03-06T07:00:00Z,30.2513,-88.0778,5.79,9.76,1111122 
DISL,ioos:station:DISL:DISL:1,2012-03-06T07:30:00Z,30.2513,-88.0778,5.701,9.66,1111122 
DISL,ioos:station:DISL:DISL:1,2012-03-06T08:00:00Z,30.2513,-88.0778,5.629,9.62,1111122 
DISL,ioos:station:DISL:DISL:1,2012-03-06T08:30:00Z,30.2513,-88.0778,5.567,9.55,1111122 
DISL,ioos:station:DISL:DISL:1,2012-03-06T09:00:00Z,30.2513,-88.0778,5.341,9.5,1111122 
DISL,ioos:station:DISL:DISL:1,2012-03-06T09:30:00Z,30.2513,-88.0778,5.369,9.42,1111122 
DISL,ioos:station:DISL:DISL:1,2012-03-06T10:00:00Z,30.2513,-88.0778,5.317,9.38,1111122 
DISL,ioos:station:DISL:DISL:1,2012-03-06T10:30:00Z,30.2513,-88.0778,5.298,9.37,1111122 
DISL,ioos:station:DISL:DISL:1,2012-03-06T11:00:00Z,30.2513,-88.0778,5.271,9.35,1111122 
DISL,ioos:station:DISL:DISL:1,2012-03-06T11:30:00Z,30.2513,-88.0778,5.613,9.39,1111122 
DISL,ioos:station:DISL:DISL:1,2012-03-06T12:00:00Z,30.2513,-88.0778,5.474,9.38,1111122 
DISL,ioos:station:DISL:DISL:1,2012-03-06T12:30:00Z,30.2513,-88.0778,5.347,9.36,1111122 
DISL,ioos:station:DISL:DISL:1,2012-03-06T13:00:00Z,30.2513,-88.0778,5.227,9.34,1111122 
DISL,ioos:station:DISL:DISL:1,2012-03-06T13:30:00Z,30.2513,-88.0778,5.222,9.41,1111122 
DISL,ioos:station:DISL:DISL:1,2012-03-06T14:00:00Z,30.2513,-88.0778,5.373,9.48,1111122 
DISL,ioos:station:DISL:DISL:1,2012-03-06T14:30:00Z,30.2513,-88.0778,5.362,9.42,1111122 
DISL,ioos:station:DISL:DISL:1,2012-03-06T15:00:00Z,30.2513,-88.0778,5.45,9.28,1111122 